SCP
0 0 0 0 0 0 0 0 0 0 0 0 0 0 0 0 0 0 0 0 0 0 0 0 0 0 0 0 0 0 0 0
0 0 0 0 0 0 0 0 0 0 0 0 0 0 0 0 0 0 0 0 0 0 0 0 0 0 0 0 0 0 0 0
0 0 0 0 0 0 0 0 0 0 0 0 0 0 0 0 0 0 0 0 0 0 0 0 0 0 0 0 0 0 0 0
0 0 0 0 0 0 0 0 0 0 0 0 0 0 0 0 0 0 0 0 0 0 0 0 0 0 0 0 0 0 0 0
0 0 0 0 0 0 0 0 0 0 0 0 0 0 0 0 0 -0 -0 -0 -0 -0 0 0 0 0 0 0 0 0 0 0
0 0 0 0 0 0 0 0 0 0 0 0 0 0 0 0 0 0 -0 -0 -0 -0 -0 -0 0 0 0 0 0 0 0 0
0 0 0 0 0 0 0 0 0 0 0 0 0 0 0 0 0 -0 -0 -0 -0 0 -0 0 0 0 0 0 0 0 0 0
0 0 0 0 0 0 0 0 0 0 0 0 0 0 0 0 0 0 0 -0 -0 0 0 0 -0 0 0 0 0 0 0 0
0 0 0 0 0 0 0 0 0 0 0 0 0 0 0 0 0 0 0 0 0 0 0 0 0 0 0 0 -0 0 0 0
0 0 0 0 0 0 0 0 0 0 0 0 0 0 0 0 0 0 0 0 0 0 0 0 0 0 0 0 -0 0 -0 0
0 0 0 0 0 0 0 0 0 0 0 0 0 0 0 0 0 0 0 0 0 0 0 0 0 0 0 -0 -0 -0 0 -0
0 0 0 0 0 0 0 0 0 0 0 0 0 0 0 0 0 0 0 0 0 0 0 0 0 0 0 0 0 0 -0 -0
0 0 0 0 0 0 0 0 0 0 0 0 0 0 0 0 0 0 0 0 0 0 0 0 0 0 0 0 0 0 0 0
0 0 0 0 0 0 0 0 0 0 0 0 0 0 0 0 0 0 0 0 0 0 0 0 0 0 0 0 0 0 0 0
0 0 0 0 0 0 0 0 0 0 0 0 0 0 0 0 0 0 0 0 0 0 0 0 0 0 0 0 0 0 0 0
0 0 0 0 0 0 0 0 0 0 0 0 0 0 0 0 0 0 0 0 0 0 0 0 0 0 0 0 0 0 0 0
0 0 0 0 0 0 0 0 0 0 0 0 0 0 0 0 0 0 0 0 0 0 0 0 0 0 0 0 0 0 0 0
0 0 0 0 0 0 0 0 0 0 0 0 0 0 0 0 0 0 0 0 0 0 0 0 0 0 0 0 0 0 0 0
0 0 0 0 0 0 0 0 0 0 0 0 0 0 0 0 0 0 0 0 0 0 0 0 0 0 0 0 0 0 0 0
Wind_Speed_500mb
35 26 16 10 11 10 8 7 5 7 8 7 5 7 10 16 22 26 28 28 28 26 24 24 27 28 28 25 27 23 28 32
39 30 19 16 13 10 7 6 4 5 10 13 8 4 9 15 22 26 29 31 32 34 35 35 34 34 34 33 30 29 24 29
48 35 26 21 16 9 4 5 10 12 12 9 5 6 12 18 21 25 29 31 33 34 35 36 39 39 37 36 35 32 27 21
50 37 29 24 17 13 12 14 14 15 14 11 10 9 10 11 23 29 35 38 41 41 40 39 37 37 35 33 29 28 32 23
52 43 36 26 22 18 19 19 14 12 11 7 7 11 18 26 30 33 34 37 38 40 39 37 35 33 31 28 28 26 22 27
57 48 38 27 22 20 20 17 12 10 7 5 8 12 17 20 22 26 31 36 39 41 41 39 38 36 32 28 25 22 21 23
57 49 40 29 23 19 15 10 8 5 3 4 9 14 18 20 24 28 31 33 36 39 41 40 38 36 33 29 21 16 15 17
65 56 40 29 22 17 10 7 7 3 2 6 11 15 19 22 24 26 28 30 33 36 38 43 43 39 33 27 23 20 19 16
59 48 38 29 21 9 11 13 12 6 5 8 11 15 19 20 21 22 23 25 28 30 32 36 39 39 38 35 32 28 23 19
45 40 34 27 15 8 13 14 11 8 8 11 12 16 15 17 16 17 18 19 20 23 26 30 33 33 36 37 40 37 34 27
45 43 33 28 18 13 17 17 14 13 12 13 14 14 15 17 14 13 14 16 16 19 22 26 26 29 31 35 39 42 42 40
59 65 60 42 33 25 20 23 21 18 16 12 13 14 14 13 12 13 15 16 19 20 22 23 25 26 28 31 35 39 42 41
62 70 63 48 38 31 20 18 18 19 19 14 10 12 12 12 13 14 15 17 17 19 21 22 24 26 28 31 33 35 38 41
68 74 65 52 42 34 28 18 18 21 18 14 13 12 16 15 15 13 14 15 15 17 19 21 24 26 27 30 33 35 36 38
71 69 63 57 49 37 26 29 23 23 19 19 15 15 18 16 15 15 10 11 13 15 21 23 23 25 26 27 30 31 35 36
71 78 75 63 51 47 39 23 24 24 22 19 19 17 16 14 11 10 7 8 11 15 20 23 22 22 27 27 28 31 33 34
77 78 72 63 58 50 35 29 28 23 23 21 20 15 13 10 7 3 2 10 13 16 19 23 23 23 24 27 30 31 31 35
69 71 70 65 55 44 37 32 29 27 22 18 15 13 12 10 7 5 6 11 13 17 20 23 25 25 23 26 30 30 31 34
64 66 65 56 53 48 36 34 30 23 19 17 17 15 14 12 11 8 7 10 12 15 18 21 24 30 22 23 26 28 29 32
Wind_Direction_500mb
177 182 183 176 162 137 113 108 100 103 142 185 210 300 335 336 339 341 336 334 327 322 320 313 308 306 302 294 290 290 289 286
176 182 191 195 175 155 135 120 134 172 181 179 188 286 350 338 339 337 334 332 330 326 321 315 309 306 307 306 299 289 282 280
179 185 191 192 182 161 125 87 99 100 103 117 93 34 356 356 346 341 340 337 333 328 321 316 312 310 304 298 296 294 293 292
177 181 190 186 187 166 140 129 116 103 89 74 68 50 26 10 4 360 351 346 340 336 335 330 323 318 314 311 300 287 286 283
177 179 183 183 178 159 140 137 131 124 113 107 73 27 14 11 3 357 350 346 345 342 341 338 333 329 326 327 321 311 294 279
180 184 180 179 173 163 151 147 149 136 115 65 23 14 17 9 359 355 353 355 356 356 355 353 349 346 343 339 331 329 312 304
186 183 175 170 172 173 157 150 162 142 96 38 15 8 4 357 359 360 3 4 5 9 10 10 8 4 357 354 5 2 335 301
179 171 172 171 177 175 167 198 221 196 340 355 358 351 349 349 356 0 1 9 14 18 21 20 19 20 17 18 21 20 358 340
174 180 181 179 190 189 216 221 225 234 287 319 331 335 338 342 351 357 1 9 16 18 24 26 25 29 29 27 23 13 3 349
175 176 183 184 191 212 241 238 241 244 284 316 323 326 331 334 345 351 359 2 11 13 18 22 24 27 29 29 28 26 19 10
181 188 196 196 207 221 225 238 253 265 278 300 315 327 337 335 341 351 1 359 6 14 19 20 18 18 20 23 26 25 23 19
209 218 198 197 215 221 234 251 247 253 265 278 297 319 332 334 340 3 8 4 11 16 22 26 23 18 15 17 21 21 22 23
213 201 195 199 201 205 218 223 236 244 254 268 300 314 316 316 335 356 359 358 6 14 21 25 27 24 21 20 18 17 18 19
201 196 200 200 200 199 205 235 244 241 249 274 291 297 293 297 325 340 347 349 3 12 20 25 27 28 26 26 26 23 21 20
197 194 193 196 195 204 211 230 230 239 250 262 269 266 265 295 318 322 343 1 9 16 22 25 26 33 33 30 28 29 27 25
194 194 195 194 200 200 199 212 229 238 250 253 245 248 268 283 298 316 338 30 32 31 29 28 33 32 37 32 29 28 31 31
197 196 193 199 197 199 205 217 226 236 243 238 240 247 253 257 274 295 29 61 56 46 42 37 35 42 34 32 31 31 27 30
190 194 200 202 199 204 207 218 221 228 230 228 231 224 230 222 200 170 102 74 63 54 51 47 42 48 42 35 31 28 29 30
192 197 200 200 195 196 209 215 216 217 215 214 213 213 203 191 181 166 109 84 63 56 56 54 49 48 44 42 30 28 31 34
Wind_Speed_850mb
35 26 16 10 11 10 8 7 5 7 8 7 5 7 10 16 22 26 28 28 28 26 24 24 27 28 28 25 27 23 28 32
39 30 19 16 13 10 7 6 4 5 10 13 8 4 9 15 22 26 29 31 32 34 35 35 34 34 34 33 30 29 24 29
48 35 26 21 16 9 4 5 10 12 12 9 5 6 12 18 21 25 29 31 33 34 35 36 39 39 37 36 35 32 27 21
50 37 29 24 17 13 12 14 14 15 14 11 10 9 10 11 23 29 35 38 41 41 40 39 37 37 35 33 29 28 32 23
52 43 36 26 22 18 19 19 14 12 11 7 7 11 18 26 30 33 34 37 38 40 39 37 35 33 31 28 28 26 22 27
57 48 38 27 22 20 20 17 12 10 7 5 8 12 17 20 22 26 31 36 39 41 41 39 38 36 32 28 25 22 21 23
57 49 40 29 23 19 15 10 8 5 3 4 9 14 18 20 24 28 31 33 36 39 41 40 38 36 33 29 21 16 15 17
65 56 40 29 22 17 10 7 7 3 2 6 11 15 19 22 24 26 28 30 33 36 38 43 43 39 33 27 23 20 19 16
59 48 38 29 21 9 11 13 12 6 5 8 11 15 19 20 21 22 23 25 28 30 32 36 39 39 38 35 32 28 23 19
45 40 34 27 15 8 13 14 11 8 8 11 12 16 15 17 16 17 18 19 20 23 26 30 33 33 36 37 40 37 34 27
45 43 33 28 18 13 17 17 14 13 12 13 14 14 15 17 14 13 14 16 16 19 22 26 26 29 31 35 39 42 42 40
59 65 60 42 33 25 20 23 21 18 16 12 13 14 14 13 12 13 15 16 19 20 22 23 25 26 28 31 35 39 42 41
62 70 63 48 38 31 20 18 18 19 19 14 10 12 12 12 13 14 15 17 17 19 21 22 24 26 28 31 33 35 38 41
68 74 65 52 42 34 28 18 18 21 18 14 13 12 16 15 15 13 14 15 15 17 19 21 24 26 27 30 33 35 36 38
71 69 63 57 49 37 26 29 23 23 19 19 15 15 18 16 15 15 10 11 13 15 21 23 23 25 26 27 30 31 35 36
71 78 75 63 51 47 39 23 24 24 22 19 19 17 16 14 11 10 7 8 11 15 20 23 22 22 27 27 28 31 33 34
77 78 72 63 58 50 35 29 28 23 23 21 20 15 13 10 7 3 2 10 13 16 19 23 23 23 24 27 30 31 31 35
69 71 70 65 55 44 37 32 29 27 22 18 15 13 12 10 7 5 6 11 13 17 20 23 25 25 23 26 30 30 31 34
64 66 65 56 53 48 36 34 30 23 19 17 17 15 14 12 11 8 7 10 12 15 18 21 24 30 22 23 26 28 29 32
Wind_Direction_850mb
177 182 183 176 162 137 113 108 100 103 142 185 210 300 335 336 339 341 336 334 327 322 320 313 308 306 302 294 290 290 289 286
176 182 191 195 175 155 135 120 134 172 181 179 188 286 350 338 339 337 334 332 330 326 321 315 309 306 307 306 299 289 282 280
179 185 191 192 182 161 125 87 99 100 103 117 93 34 356 356 346 341 340 337 333 328 321 316 312 310 304 298 296 294 293 292
177 181 190 186 187 166 140 129 116 103 89 74 68 50 26 10 4 360 351 346 340 336 335 330 323 318 314 311 300 287 286 283
177 179 183 183 178 159 140 137 131 124 113 107 73 27 14 11 3 357 350 346 345 342 341 338 333 329 326 327 321 311 294 279
180 184 180 179 173 163 151 147 149 136 115 65 23 14 17 9 359 355 353 355 356 356 355 353 349 346 343 339 331 329 312 304
186 183 175 170 172 173 157 150 162 142 96 38 15 8 4 357 359 360 3 4 5 9 10 10 8 4 357 354 5 2 335 301
179 171 172 171 177 175 167 198 221 196 340 355 358 351 349 349 356 0 1 9 14 18 21 20 19 20 17 18 21 20 358 340
174 180 181 179 190 189 216 221 225 234 287 319 331 335 338 342 351 357 1 9 16 18 24 26 25 29 29 27 23 13 3 349
175 176 183 184 191 212 241 238 241 244 284 316 323 326 331 334 345 351 359 2 11 13 18 22 24 27 29 29 28 26 19 10
181 188 196 196 207 221 225 238 253 265 278 300 315 327 337 335 341 351 1 359 6 14 19 20 18 18 20 23 26 25 23 19
209 218 198 197 215 221 234 251 247 253 265 278 297 319 332 334 340 3 8 4 11 16 22 26 23 18 15 17 21 21 22 23
213 201 195 199 201 205 218 223 236 244 254 268 300 314 316 316 335 356 359 358 6 14 21 25 27 24 21 20 18 17 18 19
201 196 200 200 200 199 205 235 244 241 249 274 291 297 293 297 325 340 347 349 3 12 20 25 27 28 26 26 26 23 21 20
197 194 193 196 195 204 211 230 230 239 250 262 269 266 265 295 318 322 343 1 9 16 22 25 26 33 33 30 28 29 27 25
194 194 195 194 200 200 199 212 229 238 250 253 245 248 268 283 298 316 338 30 32 31 29 28 33 32 37 32 29 28 31 31
197 196 193 199 197 199 205 217 226 236 243 238 240 247 253 257 274 295 29 61 56 46 42 37 35 42 34 32 31 31 27 30
190 194 200 202 199 204 207 218 221 228 230 228 231 224 230 222 200 170 102 74 63 54 51 47 42 48 42 35 31 28 29 30
192 197 200 200 195 196 209 215 216 217 215 214 213 213 203 191 181 166 109 84 63 56 56 54 49 48 44 42 30 28 31 34